Dewpoint
51 51 51 51 52 52 52 52 51 50 50 45 44 45 39 29 29 29 26 25 23 21 20 20 19 13 13 16 14 12 13 14 14 15 17 15 19 17 19 20 18 19 21 23 22 23 24 23 21 21 25 28 29 26 25 25 25 26 26 30 28 42 25 24 23 29 31 16 15 17 18 17 14 11 11 12 12 12 12 14 19 18 15 12 12 21 21
51 51 52 52 52 52 52 52 52 51 50 49 46 42 38 36 37 35 24 26 24 22 17 17 17 14 17 20 20 16 15 15 15 17 16 15 16 17 20 21 23 24 24 22 21 23 24 25 26 29 33 30 32 31 28 25 24 25 26 31 33 31 31 29 27 29 30 20 15 15 16 16 15 12 11 12 14 14 12 13 23 20 15 11 11 13 20
51 51 52 52 52 52 52 52 52 52 51 50 47 42 40 39 34 27 24 27 23 19 16 15 18 19 20 21 21 18 17 17 19 19 18 18 17 19 24 22 23 23 23 23 24 22 23 24 26 35 34 33 33 30 29 31 25 25 29 42 31 33 33 32 27 26 26 20 16 19 18 17 16 14 11 12 11 15 15 14 25 20 33 30 16 15 25
51 51 52 52 52 52 52 52 52 52 52 51 47 44 42 37 30 27 26 28 25 23 20 16 15 17 20 20 21 20 18 18 21 19 21 19 22 22 24 21 25 24 23 24 21 23 24 24 26 34 34 33 32 32 32 30 29 39 48 44 32 31 32 35 34 31 26 28 35 22 22 18 16 13 11 9 10 10 16 20 22 18 29 25 31 27 29
51 51 52 52 52 52 52 52 52 52 52 52 48 44 40 38 31 29 29 30 27 25 22 18 18 17 17 21 23 24 21 20 20 24 19 25 22 21 25 26 26 26 24 23 25 25 24 27 32 33 33 32 31 32 30 29 36 47 42 36 28 34 32 32 37 34 30 36 38 29 29 21 17 14 10 9 10 12 14 16 16 41 26 24 34 49 29
51 51 52 52 52 52 52 52 52 52 51 51 48 40 38 33 34 35 34 31 30 29 27 25 24 21 16 20 25 23 20 23 20 20 22 24 30 25 27 28 26 26 25 25 24 27 29 30 30 32 32 31 30 31 31 29 38 36 27 25 27 29 30 31 30 29 28 28 28 28 29 26 23 15 12 10 11 12 14 20 17 31 25 26 41 48 35
51 51 52 51 52 52 52 52 52 52 51 50 47 42 38 37 37 36 38 35 34 34 32 29 25 20 18 23 23 21 24 23 21 20 19 21 28 29 26 24 24 26 27 27 27 31 27 27 31 32 32 30 30 31 30 30 30 27 26 26 33 33 30 32 31 28 26 26 26 26 28 29 27 26 14 11 10 11 12 13 15 18 38 34 30 40 29
51 51 51 52 52 52 52 52 52 52 51 49 43 41 39 38 38 39 41 38 36 35 32 30 27 24 26 21 21 28 27 23 21 21 21 22 26 33 25 23 25 26 26 29 27 29 31 30 29 30 30 28 30 31 30 28 28 27 26 27 32 30 31 34 31 31 29 26 28 28 28 28 26 25 18 11 10 11 11 11 14 21 22 20 22 38 37
51 51 52 51 52 52 52 52 52 51 51 44 41 41 46 46 44 45 39 35 35 36 34 33 31 25 23 20 23 23 21 22 23 22 21 25 26 26 25 26 26 26 25 26 26 29 31 31 29 29 28 27 27 29 30 29 27 26 26 26 28 29 30 30 32 30 29 29 28 26 27 27 26 26 26 23 13 14 13 15 14 19 27 27 22 33 30
51 51 51 51 51 52 52 52 52 51 51 48 45 41 46 47 48 45 44 35 38 35 35 33 32 28 24 24 23 24 22 22 23 23 25 25 30 30 30 26 25 24 26 28 27 27 29 28 27 26 25 24 24 25 29 28 27 26 25 26 26 28 30 29 28 27 29 29 27 26 26 27 26 26 25 19 24 24 13 16 17 17 18 23 24 27 33
51 51 51 51 51 51 52 52 52 52 51 48 46 45 47 46 44 44 43 34 35 33 34 34 34 34 32 29 26 23 23 24 23 23 27 25 25 26 28 26 26 26 26 27 29 27 25 24 24 24 23 23 23 23 26 27 27 26 25 25 26 28 27 28 31 28 27 27 26 27 27 25 26 29 25 26 24 21 18 16 15 16 16 19 25 33 39
51 51 51 51 51 51 51 52 52 52 50 51 50 47 49 50 48 45 39 33 31 32 33 33 32 34 31 31 28 26 25 25 26 26 24 24 24 25 24 24 31 26 31 30 31 27 24 24 23 25 23 23 23 23 23 26 26 29 24 24 24 24 26 27 32 28 27 28 29 28 25 26 31 28 27 26 24 24 24 26 17 16 16 19 24 30 38
51 51 51 51 51 51 51 51 52 52 51 51 51 47 50 49 47 43 40 36 33 32 32 32 34 34 34 32 31 29 29 28 26 27 26 26 27 24 24 25 25 29 28 26 25 25 25 26 27 27 26 25 24 23 21 21 23 23 22 22 22 23 24 26 28 28 28 28 27 26 26 32 26 27 28 28 22 23 24 24 22 20 20 30 26 33 36
50 51 51 51 51 51 51 52 52 52 52 52 50 50 51 50 45 43 41 36 35 33 34 34 34 33 33 33 33 31 31 29 30 31 27 28 27 26 25 25 25 24 25 26 26 28 27 27 26 26 27 26 26 23 21 19 19 19 19 20 20 21 24 25 25 29 26 27 26 24 32 27 26 25 27 24 28 28 27 26 28 28 29 30 32 33 32
50 51 52 51 51 52 52 52 53 53 53 52 52 52 52 51 49 45 44 40 33 36 35 33 33 33 32 33 35 33 31 31 30 30 33 31 30 33 29 25 25 25 25 27 26 29 30 28 25 24 25 25 20 21 19 16 17 17 17 18 21 26 23 27 28 27 28 27 25 25 24 25 28 32 28 28 31 32 30 31 29 33 25 26 30 45 46
51 52 52 52 52 52 52 53 53 53 53 52 52 52 52 52 52 50 45 41 38 31 32 33 35 35 35 37 36 33 32 33 35 34 27 30 29 28 30 26 26 26 27 29 33 31 29 26 25 25 24 24 22 20 19 13 12 13 15 17 17 18 22 27 24 25 26 26 25 24 23 26 32 29 29 32 33 31 32 30 29 51 50 48 38 42 45
51 52 52 52 52 52 53 53 53 53 53 52 52 52 51 53 51 49 45 43 40 35 35 36 37 38 37 37 36 36 37 34 31 27 27 31 31 31 31 33 28 29 31 31 36 28 26 25 25 25 26 26 24 23 24 18 13 13 15 16 16 17 17 21 24 26 26 26 24 24 28 31 34 31 26 30 33 33 33 28 32 53 52 48 47 40 47
52 52 52 52 52 52 53 53 53 53 53 52 53 51 51 54 53 51 47 43 39 38 38 37 37 36 36 37 35 35 38 36 35 34 35 32 36 33 33 30 28 31 34 30 35 28 28 25 24 24 24 27 29 29 23 24 26 18 16 17 16 18 19 18 20 21 24 27 24 25 30 37 36 33 35 37 34 35 31 30 49 53 53 50 50 50 52
51 52 52 52 52 53 53 53 53 53 53 53 54 52 52 53 54 52 48 45 42 36 37 38 38 37 37 37 37 36 36 36 39 34 31 31 32 35 33 31 31 28 32 30 31 28 24 26 27 25 23 26 29 24 29 28 28 29 27 18 19 19 22 21 20 17 20 23 22 23 32 41 39 38 43 47 39 32 33 52 54 52 52 51 50 52 54
52 52 52 52 52 53 53 53 53 53 53 53 53 49 51 53 55 51 48 43 44 41 40 39 39 38 38 37 36 36 39 39 38 36 34 30 36 33 30 26 43 33 33 36 30 31 29 26 29 29 25 26 29 31 26 28 28 28 28 22 18 19 19 18 16 17 17 23 24 23 26 44 38 40 45 46 45 48 52 53 54 53 54 53 53 54 53
51 52 52 52 52 52 53 53 52 53 53 53 52 51 50 54 54 53 51 48 44 39 38 39 38 38 38 37 37 37 36 35 36 37 41 34 38 33 27 30 30 32 29 35 27 27 30 28 32 28 30 30 28 27 27 28 27 27 26 29 29 39 27 19 18 19 15 18 21 26 41 40 39 42 41 44 45 48 51 52 52 53 53 54 54 55 55
51 52 52 52 52 52 52 52 53 53 53 53 52 52 48 52 53 53 53 52 46 41 39 40 40 39 39 39 38 38 37 36 37 40 39 37 36 37 34 33 32 31 33 36 28 32 39 36 33 31 28 28 31 28 31 27 23 32 30 30 26 33 34 40 33 34 28 24 29 38 40 38 36 40 41 41 41 45 48 52 54 52 51 53 54 55 55
52 52 52 52 52 52 53 53 53 53 53 53 52 51 48 51 52 54 53 47 48 47 45 44 43 42 42 41 40 40 39 39 38 37 37 36 36 36 37 35 33 42 38 36 36 36 34 36 30 33 29 27 28 26 28 28 27 32 26 28 28 33 36 39 37 35 37 35 36 39 38 39 37 36 39 40 38 43 45 47 52 55 50 52 53 53 54
52 52 52 52 52 53 53 53 53 53 53 52 53 51 50 52 54 53 50 49 46 43 43 43 43 40 38 37 38 38 38 39 40 40 41 40 36 35 34 42 37 41 40 42 44 38 39 35 32 34 28 29 33 26 25 25 27 31 28 28 28 29 29 31 36 36 29 27 35 34 36 37 37 36 37 39 40 44 47 47 47 52 48 49 52 53 54
52 52 52 52 53 53 53 53 53 52 52 52 52 53 53 52 53 52 48 42 43 42 37 36 38 39 40 40 39 37 36 37 37 38 37 38 38 34 33 38 37 36 37 39 40 37 37 33 34 33 31 32 34 26 29 28 28 37 27 29 30 29 32 30 29 31 30 30 34 35 35 36 36 35 36 37 38 41 47 47 46 46 47 49 51 53 52
52 52 52 52 53 53 53 52 52 52 53 52 52 52 51 51 54 54 51 48 48 45 38 35 36 39 37 36 37 37 36 34 33 35 36 36 35 36 36 37 37 39 39 39 39 39 37 36 38 34 34 30 34 33 32 33 32 31 30 30 31 34 35 31 34 30 30 33 34 35 35 34 34 35 36 37 39 44 43 44 45 44 45 47 47 50 52
52 52 52 52 52 52 52 52 52 52 52 52 52 53 52 52 54 52 48 47 44 40 41 37 38 38 39 37 38 36 34 32 32 33 33 33 33 34 35 37 37 37 36 38 37 37 36 36 35 31 34 35 36 32 32 30 31 30 28 28 30 28 28 32 31 30 28 29 30 34 28 28 30 33 37 40 41 41 42 43 44 44 45 47 46 47 50
52 52 52 52 52 52 52 52 52 52 52 52 52 52 53 52 54 53 51 49 45 39 40 40 38 38 39 38 37 36 35 34 33 33 33 33 34 34 34 34 36 34 35 36 35 35 34 35 31 35 34 35 32 30 32 33 32 31 31 30 31 30 33 30 27 28 27 32 33 39 40 39 33 34 36 39 40 41 41 42 43 44 46 47 47 46 49
52 52 52 52 52 52 52 52 52 52 52 52 52 53 52 52 53 52 51 52 50 48 44 42 41 38 37 35 35 33 33 34 34 34 33 33 33 34 34 35 35 35 35 36 35 35 34 33 35 33 33 34 32 29 30 27 27 27 28 33 33 34 35 33 33 34 33 33 34 36 37 36 39 38 37 38 41 40 39 40 42 43 45 45 45 45 45
52 52 52 52 52 52 52 52 53 53 53 53 52 49 49 47 50 51 50 51 51 49 42 40 36 37 38 37 38 35 35 35 34 33 33 33 33 35 36 37 38 38 38 36 36 35 35 35 33 34 34 37 34 34 30 29 27 28 32 34 34 37 37 38 38 36 34 36 37 38 39 38 39 40 40 41 42 42 41 41 42 43 43 44 45 46 46
52 52 52 52 52 52 52 52 53 52 51 53 51 47 44 42 47 49 51 50 51 49 45 43 40 39 38 38 37 40 41 40 39 37 36 34 36 36 36 39 39 38 39 40 40 39 39 37 37 37 38 37 40 36 33 32 30 31 33 35 36 38 36 38 39 40 38 37 38 38 39 38 39 38 38 39 39 39 40 40 42 44 43 45 45 47 46
52 52 52 52 52 52 52 53 53 52 53 50 45 44 45 47 50 49 49 50 52 48 44 40 38 37 36 38 41 43 43 42 43 44 45 44 42 41 40 37 39 43 42 41 44 43 41 41 39 39 39 42 41 38 36 34 34 33 37 37 38 38 38 38 38 38 38 39 39 38 37 37 38 37 37 39 38 38 38 40 42 43 46 45 46 46 46
52 51 51 52 52 52 52 52 53 53 51 49 49 49 49 49 49 51 51 51 49 46 43 41 37 37 37 38 39 43 44 46 48 49 47 52 49 49 45 46 45 43 45 45 41 39 44 42 44 40 43 46 41 39 37 36 37 40 40 39 38 38 39 39 39 39 40 39 37 36 36 36 38 39 39 39 39 39 40 39 38 40 42 45 45 45 45
52 51 51 52 52 52 53 53 53 51 50 52 51 48 50 50 51 51 51 50 48 48 44 41 37 36 36 37 37 45 45 40 40 46 44 48 51 47 46 47 47 43 46 43 44 44 44 43 40 41 44 41 43 38 34 37 40 41 42 43 41 40 40 40 40 41 41 41 40 38 38 38 40 40 41 41 41 42 42 42 43 41 39 39 41 43 44
51 51 52 52 52 52 52 52 53 53 50 48 49 51 51 51 50 51 52 50 44 42 41 40 40 37 35 36 37 42 45 43 40 42 42 47 49 47 46 42 44 39 41 47 43 41 39 40 44 38 36 42 37 33 36 38 39 40 40 41 41 41 40 40 40 41 42 42 42 42 41 39 40 40 40 40 40 42 41 41 42 42 40 40 42 45 45
51 52 52 53 53 52 53 52 53 51 50 48 50 50 51 50 50 52 52 50 48 43 41 40 41 39 38 34 35 39 42 43 44 45 45 47 47 49 47 44 38 42 46 43 37 41 38 44 41 34 40 35 33 36 37 39 39 39 41 43 45 45 44 43 43 42 43 43 44 44 43 41 39 40 40 40 40 41 42 43 43 43 41 42 45 48 49
52 52 52 52 52 53 52 50 51 50 49 50 52 53 52 51 51 51 49 47 50 47 44 42 39 40 40 39 41 41 43 40 43 44 44 43 43 46 45 42 39 43 42 40 40 38 42 47 39 34 34 33 35 40 40 41 43 44 43 46 48 50 51 49 47 46 44 44 45 44 42 41 41 41 41 41 42 42 42 43 44 43 43 41 43 45 47
51 51 52 51 53 49 46 50 50 51 53 52 52 50 49 48 46 46 46 44 46 46 45 44 41 42 43 42 40 42 44 40 44 44 45 46 44 43 46 43 42 44 35 39 42 48 45 41 36 34 34 39 40 42 45 45 45 46 46 47 48 49 50 52 51 48 45 45 44 43 43 42 41 42 42 43 43 43 44 44 45 44 43 42 41 46 47
50 52 52 53 51 44 43 52 52 52 50 51 50 50 48 48 47 45 45 45 46 44 44 44 43 44 43 43 42 45 42 42 44 42 40 45 46 41 45 40 44 45 35 39 43 47 37 38 37 35 33 39 42 45 47 46 46 46 47 47 48 49 50 50 52 50 49 47 45 44 44 42 43 43 43 44 45 44 44 45 45 45 44 44 44 49 50
54 54 50 48 46 48 52 53 54 52 51 50 50 48 44 49 45 39 45 41 40 47 47 44 46 45 45 43 43 42 44 45 39 39 40 45 46 42 42 44 41 40 31 33 37 49 36 31 34 34 33 39 42 46 47 47 47 46 47 47 47 48 49 49 50 52 54 53 52 50 47 46 45 44 45 45 45 45 45 46 46 46 45 47 51 50 52
53 51 47 45 48 52 53 51 51 51 50 50 48 48 42 36 44 44 42 42 41 44 48 50 51 49 46 44 45 44 48 48 48 47 47 37 43 45 35 35 41 36 31 32 35 34 36 31 32 32 35 42 44 45 46 47 47 47 47 48 48 48 48 48 49 50 51 52 52 52 53 53 51 49 48 48 49 48 47 47 46 46 46 48 53 55 56
54 50 51 53 55 54 53 52 52 52 47 42 41 35 37 39 40 41 43 39 40 45 49 46 46 47 46 50 49 49 49 49 48 48 48 39 41 39 33 35 35 31 30 34 35 34 33 30 31 33 41 44 45 46 47 47 48 47 47 48 49 48 48 47 48 48 49 50 50 51 51 52 53 52 52 52 52 53 53 50 48 48 49 53 58 57 57
50 49 53 53 54 53 52 38 38 41 34 35 34 34 34 33 36 35 41 47 46 46 40 51 49 52 52 55 53 52 52 50 48 49 46 41 46 42 32 31 30 28 33 37 31 32 31 32 32 36 42 44 44 46 47 48 49 49 48 48 49 49 48 47 47 47 48 49 49 49 49 50 51 51 52 54 54 56 57 56 55 57 58 57 56 58 58
55 56 56 48 41 40 41 31 37 36 35 29 29 29 32 32 37 36 40 43 47 42 39 39 40 44 45 50 50 49 52 51 51 50 36 37 35 32 30 27 28 31 32 30 30 30 32 34 36 38 39 40 42 45 46 47 49 49 49 48 49 49 48 47 47 46 47 48 48 49 49 48 48 50 50 50 51 51 52 54 56 58 58 58 57 57 58
52 43 38 38 36 35 36 32 38 29 30 31 32 32 34 36 36 36 36 44 47 40 42 39 38 42 41 41 52 45 39 39 47 42 35 33 30 30 30 28 31 32 30 29 30 32 33 34 37 37 38 38 38 43 46 47 48 48 49 48 47 48 48 47 47 47 47 46 47 47 47 47 47 48 48 48 49 50 50 50 51 52 52 52 53 53 55
41 37 34 32 32 31 27 27 27 27 31 32 31 34 33 35 39 36 38 40 42 41 40 42 41 46 48 43 37 37 37 38 35 34 34 33 29 28 32 33 33 30 31 31 30 31 33 37 38 38 39 38 38 39 42 45 47 48 48 46 47 47 47 48 48 47 47 47 47 46 47 47 47 47 47 47 47 49 49 49 50 49 49 48 49 50 51
39 40 32 30 29 29 31 27 28 32 31 31 32 32 33 34 35 37 37 39 40 38 39 40 41 44 46 41 43 49 38 36 34 34 32 30 29 30 33 32 30 32 30 30 31 33 36 37 37 40 40 39 39 39 40 40 41 44 47 48 48 47 48 48 48 47 48 48 48 47 47 46 46 47 47 47 47 47 48 49 50 50 50 49 50 49 49
35 38 34 28 27 29 28 29 33 31 30 33 30 31 31 34 34 35 36 36 37 37 41 39 37 40 46 40 43 34 34 36 34 33 33 30 32 29 28 30 32 36 35 33 34 37 41 39 39 41 41 41 40 39 39 40 39 40 42 45 47 48 48 47 47 48 48 48 47 48 48 47 46 46 46 46 47 46 46 47 48 49 48 49 49 50 50
37 32 31 29 32 30 30 29 29 30 29 30 31 30 31 33 32 35 36 38 38 37 38 36 34 34 33 35 33 33 33 35 32 31 34 31 30 29 29 28 30 31 39 40 39 38 39 40 43 43 42 41 41 40 39 39 38 38 39 40 42 44 47 49 49 49 49 48 48 47 48 48 48 47 45 45 46 47 47 48 47 47 48 48 48 48 48
32 31 33 29 31 29 30 29 28 27 28 31 31 31 31 32 32 35 37 37 38 36 36 35 33 31 31 33 30 31 31 33 34 32 34 32 33 33 30 30 32 34 36 36 38 38 40 42 43 43 43 42 42 40 40 38 40 39 38 38 39 40 41 43 46 49 49 48 48 48 49 49 48 48 47 46 47 47 47 47 47 47 47 47 47 47 48
34 31 29 31 28 29 29 28 27 28 29 30 32 31 32 32 34 34 35 36 37 35 33 33 32 32 28 31 31 29 31 34 32 33 35 34 36 37 33 33 37 41 40 38 37 38 41 44 43 42 43 43 42 42 41 41 40 39 37 38 39 39 40 40 41 41 44 47 48 48 48 48 48 48 48 48 47 46 46 47 47 47 48 48 48 47 47
31 30 33 32 32 32 30 31 32 31 32 33 33 32 34 34 34 36 38 35 36 31 30 33 31 30 30 29 32 33 33 32 30 32 34 35 39 36 36 39 40 44 43 41 38 37 38 43 48 45 46 44 43 42 43 41 40 39 39 37 38 39 40 40 40 39 40 41 43 45 46 47 47 47 47 46 46 47 46 46 48 47 48 49 49 48 48